PLT2261 SBEG-SBBE

Flight info

Callsign PLT2261
Flight time 1h 48m
Altitude 35000
Route XOLOK UZ81 DADUD
Aircraft B738/M-SDE2E3FGHIRWXY/LB1

Departure

Time 2026-04-24 10:56
Airport Eduardo Gomes International Airport (SBEG)

Arrival

Time 2026-04-24 12:45
Airport Val de Cans/Júlio Cezar Ribeiro International Airport (SBBE)
Time Latitude Longitude Altitude Speed Heading
2026-04-24 10:28 -3.03280 -60.04622 241 ft 0 kts
2026-04-24 10:47 -3.03290 -60.04623 240 ft 2 kts
2026-04-24 10:48 -3.03305 -60.04623 240 ft 2 kts
2026-04-24 10:48 -3.03320 -60.04623 240 ft 1 kts
2026-04-24 10:48 -3.03330 -60.04623 240 ft 2 kts 348°
2026-04-24 10:48 -3.03344 -60.04617 240 ft 2 kts 318°
2026-04-24 10:49 -3.03353 -60.04604 240 ft 2 kts 289°
2026-04-24 10:49 -3.03355 -60.04595 240 ft 0 kts 271°
2026-04-24 10:49 -3.03355 -60.04588 240 ft 0 kts 269°
2026-04-24 10:51 -3.03355 -60.04591 240 ft 1 kts 268°
2026-04-24 10:51 -3.03356 -60.04612 240 ft 4 kts 266°
2026-04-24 10:51 -3.03356 -60.04658 240 ft 8 kts 270°
2026-04-24 10:52 -3.03361 -60.04733 240 ft 12 kts 261°
2026-04-24 10:52 -3.03409 -60.04823 240 ft 16 kts 229°
2026-04-24 10:52 -3.03508 -60.04907 240 ft 20 kts 222°
2026-04-24 10:52 -3.03588 -60.05036 241 ft 23 kts 252°
2026-04-24 10:53 -3.03634 -60.05208 240 ft 27 kts 256°
2026-04-24 10:53 -3.03676 -60.05394 239 ft 26 kts 260°
2026-04-24 10:53 -3.03692 -60.05564 238 ft 23 kts 268°
2026-04-24 10:53 -3.03691 -60.05720 236 ft 22 kts 270°
2026-04-24 10:54 -3.03691 -60.05877 235 ft 23 kts 270°
2026-04-24 10:54 -3.03689 -60.06050 236 ft 25 kts 269°
2026-04-24 10:54 -3.03740 -60.06167 237 ft 12 kts 202°
2026-04-24 10:54 -3.03756 -60.06171 237 ft 0 kts 193°
2026-04-24 10:55 -3.03758 -60.06172 237 ft 2 kts 192°
2026-04-24 10:55 -3.03831 -60.06161 237 ft 18 kts 142°
2026-04-24 10:55 -3.03856 -60.05901 236 ft 74 kts 90°
2026-04-24 10:56 -3.03858 -60.05114 243 ft 149 kts 90°
2026-04-24 10:56 -3.03874 -60.03896 603 ft 184 kts 89°
2026-04-24 10:56 -3.03892 -60.02680 1732 ft 174 kts 88°
2026-04-24 10:56 -3.03891 -60.01490 2444 ft 180 kts 87°
2026-04-24 10:57 -3.03903 -60.00216 2997 ft 192 kts 89°
2026-04-24 10:57 -3.03945 -59.98809 3477 ft 212 kts 90°
2026-04-24 10:57 -3.03998 -59.97303 4107 ft 225 kts 90°
2026-04-24 10:57 -3.04052 -59.95672 4692 ft 243 kts 90°
2026-04-24 10:58 -3.04108 -59.93952 5360 ft 256 kts 90°
2026-04-24 10:58 -3.04168 -59.92134 6097 ft 266 kts 90°
2026-04-24 10:58 -3.04228 -59.90292 6915 ft 271 kts 90°
2026-04-24 10:58 -3.04290 -59.88395 7733 ft 277 kts 90°
2026-04-24 10:59 -3.04353 -59.86463 8539 ft 281 kts 91°
2026-04-24 10:59 -3.04414 -59.84511 9322 ft 286 kts 91°
2026-04-24 10:59 -3.04476 -59.82520 10114 ft 290 kts 91°
2026-04-24 10:59 -3.04539 -59.80487 10696 ft 302 kts 91°
2026-04-24 11:00 -3.04607 -59.78333 11199 ft 316 kts 91°
2026-04-24 11:00 -3.04678 -59.76102 11666 ft 331 kts 91°
2026-04-24 11:00 -3.04753 -59.73733 12123 ft 345 kts 91°
2026-04-24 11:00 -3.04831 -59.71316 12569 ft 358 kts 91°
2026-04-24 11:01 -3.04916 -59.68800 13147 ft 366 kts 91°
2026-04-24 11:01 -3.05006 -59.66254 13853 ft 369 kts 91°
2026-04-24 11:01 -3.05098 -59.63676 14518 ft 373 kts 91°
2026-04-24 11:01 -3.05193 -59.61064 15174 ft 376 kts 91°
2026-04-24 11:02 -3.05287 -59.58476 15800 ft 380 kts 91°
2026-04-24 11:02 -3.05382 -59.55817 16431 ft 383 kts 91°
2026-04-24 11:02 -3.05477 -59.53157 17076 ft 384 kts 91°
2026-04-24 11:02 -3.05572 -59.50499 17636 ft 388 kts 91°
2026-04-24 11:03 -3.05668 -59.47778 18184 ft 392 kts 91°
2026-04-24 11:03 -3.05762 -59.45076 18758 ft 395 kts 91°
2026-04-24 11:03 -3.05859 -59.42300 19375 ft 396 kts 91°
2026-04-24 11:03 -3.05956 -59.39560 19880 ft 400 kts 91°
2026-04-24 11:04 -3.06053 -59.36786 20350 ft 405 kts 91°
2026-04-24 11:04 -3.06152 -59.33968 20893 ft 407 kts 91°
2026-04-24 11:04 -3.06252 -59.31107 21435 ft 409 kts 91°
2026-04-24 11:04 -3.06351 -59.28286 21849 ft 414 kts 91°
2026-04-24 11:05 -3.06452 -59.25381 22338 ft 417 kts 91°
2026-04-24 11:05 -3.06554 -59.22463 22837 ft 420 kts 92°
2026-04-24 11:05 -3.06655 -59.19554 23315 ft 422 kts 92°
2026-04-24 11:05 -3.06757 -59.16629 23829 ft 424 kts 91°
2026-04-24 11:06 -3.06857 -59.13713 24319 ft 425 kts 92°
2026-04-24 11:06 -3.06960 -59.10754 24774 ft 428 kts 92°
2026-04-24 11:06 -3.07063 -59.07780 25234 ft 430 kts 92°
2026-04-24 11:06 -3.07166 -59.04781 25737 ft 431 kts 92°
2026-04-24 11:07 -3.07375 -58.98735 26526 ft 437 kts 92°
2026-04-24 11:07 -3.07479 -58.95696 26974 ft 439 kts 92°
2026-04-24 11:07 -3.07584 -58.92650 27359 ft 441 kts 92°
2026-04-24 11:08 -3.07689 -58.89572 27784 ft 442 kts 92°
2026-04-24 11:08 -3.07794 -58.86523 28204 ft 444 kts 92°
2026-04-24 11:08 -3.07902 -58.83414 28528 ft 448 kts 92°
2026-04-24 11:08 -3.08010 -58.80286 28868 ft 451 kts 92°
2026-04-24 11:09 -3.08115 -58.77188 29232 ft 453 kts 92°
2026-04-24 11:09 -3.08224 -58.74009 29624 ft 455 kts 92°
2026-04-24 11:09 -3.08332 -58.70855 30019 ft 456 kts 92°
2026-04-24 11:09 -3.08440 -58.67679 30438 ft 457 kts 92°
2026-04-24 11:10 -3.08549 -58.64529 30900 ft 456 kts 92°
2026-04-24 11:10 -3.08658 -58.61387 31420 ft 454 kts 92°
2026-04-24 11:10 -3.08768 -58.58210 31838 ft 453 kts 92°
2026-04-24 11:10 -3.08877 -58.55067 32309 ft 451 kts 92°
2026-04-24 11:11 -3.08984 -58.51978 32691 ft 451 kts 92°
2026-04-24 11:11 -3.09092 -58.48840 33217 ft 448 kts 92°
2026-04-24 11:11 -3.09198 -58.45735 33813 ft 444 kts 92°
2026-04-24 11:11 -3.09286 -58.42716 34381 ft 440 kts 91°
2026-04-24 11:12 -3.09288 -58.39668 34903 ft 436 kts 89°
2026-04-24 11:12 -3.09107 -58.36617 34947 ft 435 kts 84°
2026-04-24 11:12 -3.08126 -58.30727 34946 ft 431 kts 79°
2026-04-24 11:13 -3.06760 -58.24875 34947 ft 432 kts 77°
2026-04-24 11:13 -3.05323 -58.19098 34948 ft 430 kts 77°
2026-04-24 11:14 -3.03871 -58.13277 34945 ft 432 kts 77°
2026-04-24 11:14 -3.02428 -58.07469 34947 ft 431 kts 77°
2026-04-24 11:15 -3.00991 -58.01652 34946 ft 430 kts 77°
2026-04-24 11:15 -2.99560 -57.95855 34947 ft 430 kts 77°
2026-04-24 11:16 -2.98127 -57.90051 34950 ft 429 kts 77°
2026-04-24 11:16 -2.96694 -57.84246 34951 ft 429 kts 77°
2026-04-24 11:17 -2.95272 -57.78470 34953 ft 428 kts 77°
2026-04-24 11:17 -2.93850 -57.72686 34952 ft 429 kts 77°
2026-04-24 11:18 -2.92432 -57.66927 34952 ft 430 kts 77°
2026-04-24 11:18 -2.90996 -57.61105 34950 ft 429 kts 77°
2026-04-24 11:19 -2.89577 -57.55353 34952 ft 429 kts 77°
2026-04-24 11:19 -2.88155 -57.49583 34952 ft 428 kts 77°
2026-04-24 11:20 -2.86726 -57.43787 34952 ft 428 kts 77°
2026-04-24 11:20 -2.85298 -57.38003 34949 ft 430 kts 77°
2026-04-24 11:21 -2.83879 -57.32254 34951 ft 428 kts 77°
2026-04-24 11:21 -2.82452 -57.26486 34954 ft 427 kts 76°
2026-04-24 11:22 -2.81018 -57.20690 34952 ft 428 kts 77°
2026-04-24 11:22 -2.79601 -57.14955 34951 ft 428 kts 77°
2026-04-24 11:23 -2.78179 -57.09208 34949 ft 427 kts 76°
2026-04-24 11:23 -2.76754 -57.03452 34948 ft 427 kts 76°
2026-04-24 11:24 -2.75321 -56.97657 34948 ft 427 kts 76°
2026-04-24 11:24 -2.73903 -56.91922 34950 ft 427 kts 76°
2026-04-24 11:25 -2.72483 -56.86180 34955 ft 427 kts 76°
2026-04-24 11:25 -2.71062 -56.80430 34962 ft 425 kts 76°
2026-04-24 11:26 -2.69639 -56.74677 34968 ft 427 kts 76°
2026-04-24 11:26 -2.68221 -56.68948 34969 ft 428 kts 76°
2026-04-24 11:27 -2.66794 -56.63184 34970 ft 427 kts 76°
2026-04-24 11:27 -2.65367 -56.57424 34971 ft 427 kts 76°
2026-04-24 11:28 -2.63947 -56.51696 34972 ft 426 kts 76°
2026-04-24 11:28 -2.62517 -56.45924 34972 ft 426 kts 76°
2026-04-24 11:29 -2.61296 -56.40166 34973 ft 426 kts 81°
2026-04-24 11:29 -2.60577 -56.34258 34973 ft 427 kts 83°
2026-04-24 11:30 -2.59972 -56.28370 34973 ft 427 kts 84°
2026-04-24 11:30 -2.59344 -56.22452 34974 ft 427 kts 83°
2026-04-24 11:31 -2.58697 -56.16577 34974 ft 426 kts 83°
2026-04-24 11:31 -2.58032 -56.10666 34974 ft 428 kts 83°
2026-04-24 11:32 -2.57361 -56.04789 34975 ft 426 kts 83°
2026-04-24 11:32 -2.56685 -55.98896 34974 ft 427 kts 83°
2026-04-24 11:33 -2.56009 -55.93025 34975 ft 428 kts 83°
2026-04-24 11:33 -2.55330 -55.87124 34977 ft 428 kts 83°
2026-04-24 11:34 -2.54649 -55.81215 34981 ft 429 kts 83°
2026-04-24 11:34 -2.53969 -55.75305 34982 ft 428 kts 83°
2026-04-24 11:35 -2.53290 -55.69413 34981 ft 428 kts 83°
2026-04-24 11:35 -2.52609 -55.63506 34980 ft 428 kts 83°
2026-04-24 11:36 -2.51929 -55.57604 34985 ft 428 kts 83°
2026-04-24 11:36 -2.51247 -55.51701 34986 ft 428 kts 83°
2026-04-24 11:37 -2.50565 -55.45784 34985 ft 428 kts 83°
2026-04-24 11:37 -2.49886 -55.39890 34980 ft 428 kts 83°
2026-04-24 11:38 -2.49153 -55.33995 34980 ft 428 kts 82°
2026-04-24 11:38 -2.48331 -55.28118 34979 ft 428 kts 82°
2026-04-24 11:39 -2.47501 -55.22259 34978 ft 427 kts 82°
2026-04-24 11:39 -2.46677 -55.16389 34971 ft 427 kts 82°
2026-04-24 11:40 -2.45856 -55.10490 34968 ft 428 kts 82°
2026-04-24 11:40 -2.45044 -55.04617 34967 ft 427 kts 82°
2026-04-24 11:41 -2.44235 -54.98758 34968 ft 428 kts 82°
2026-04-24 11:41 -2.43420 -54.92855 34969 ft 427 kts 82°
2026-04-24 11:42 -2.42611 -54.87002 34973 ft 429 kts 82°
2026-04-24 11:42 -2.41795 -54.81090 34974 ft 427 kts 82°
2026-04-24 11:43 -2.40988 -54.75252 34973 ft 425 kts 82°
2026-04-24 11:43 -2.40177 -54.69389 34978 ft 426 kts 82°
2026-04-24 11:44 -2.39365 -54.63519 34979 ft 427 kts 82°
2026-04-24 11:44 -2.38553 -54.57658 34984 ft 427 kts 82°
2026-04-24 11:45 -2.37741 -54.51797 34991 ft 426 kts 82°
2026-04-24 11:45 -2.36873 -54.45960 34995 ft 426 kts 81°
2026-04-24 11:46 -2.35911 -54.40127 34999 ft 426 kts 80°
2026-04-24 11:46 -2.34937 -54.34275 35005 ft 426 kts 80°
2026-04-24 11:47 -2.33972 -54.28432 35004 ft 427 kts 80°
2026-04-24 11:47 -2.33019 -54.22607 35007 ft 426 kts 81°
2026-04-24 11:48 -2.32063 -54.16745 35008 ft 426 kts 81°
2026-04-24 11:48 -2.31117 -54.10937 35009 ft 426 kts 80°
2026-04-24 11:49 -2.30167 -54.05096 35010 ft 427 kts 81°
2026-04-24 11:49 -2.29218 -53.99265 35011 ft 426 kts 81°
2026-04-24 11:50 -2.28262 -53.93398 35011 ft 426 kts 81°
2026-04-24 11:50 -2.27312 -53.87569 35011 ft 425 kts 81°
2026-04-24 11:51 -2.26361 -53.81736 35013 ft 426 kts 81°
2026-04-24 11:51 -2.25408 -53.75890 35012 ft 428 kts 81°
2026-04-24 11:52 -2.24457 -53.70047 35012 ft 426 kts 81°
2026-04-24 11:52 -2.23499 -53.64160 35013 ft 429 kts 81°
2026-04-24 11:53 -2.22545 -53.58307 35013 ft 428 kts 80°
2026-04-24 11:53 -2.21586 -53.52425 35013 ft 428 kts 81°
2026-04-24 11:54 -2.20629 -53.46558 35013 ft 429 kts 81°
2026-04-24 11:54 -2.19674 -53.40696 35013 ft 429 kts 81°
2026-04-24 11:55 -2.18716 -53.34824 35013 ft 428 kts 80°
2026-04-24 11:55 -2.17756 -53.28933 35012 ft 431 kts 80°
2026-04-24 11:56 -2.16800 -53.23072 35012 ft 430 kts 80°
2026-04-24 11:56 -2.15834 -53.17152 35013 ft 430 kts 80°
2026-04-24 11:57 -2.14871 -53.11250 35013 ft 431 kts 81°
2026-04-24 11:57 -2.13910 -53.05351 35013 ft 432 kts 80°
2026-04-24 11:58 -2.12941 -52.99397 35013 ft 432 kts 81°
2026-04-24 11:58 -2.11979 -52.93479 35013 ft 434 kts 81°
2026-04-24 11:59 -2.11014 -52.87556 35012 ft 433 kts 81°
2026-04-24 11:59 -2.10044 -52.81607 35012 ft 433 kts 80°
2026-04-24 12:00 -2.09076 -52.75669 35011 ft 433 kts 81°
2026-04-24 12:00 -2.08106 -52.69708 35011 ft 434 kts 81°
2026-04-24 12:01 -2.07148 -52.63786 35011 ft 435 kts 81°
2026-04-24 12:01 -2.06206 -52.57967 35011 ft 436 kts 81°
2026-04-24 12:02 -2.05238 -52.51984 35010 ft 436 kts 81°
2026-04-24 12:02 -2.04274 -52.46030 35016 ft 437 kts 81°
2026-04-24 12:03 -2.03365 -52.40007 35083 ft 439 kts 82°
2026-04-24 12:03 -2.02573 -52.33985 35262 ft 437 kts 83°
2026-04-24 12:04 -2.01912 -52.27922 35378 ft 439 kts 84°
2026-04-24 12:04 -2.01402 -52.21887 35292 ft 439 kts 85°
2026-04-24 12:05 -2.01203 -52.18843 35112 ft 440 kts 86°
2026-04-24 12:05 -2.01045 -52.15800 34973 ft 438 kts 87°
2026-04-24 12:05 -2.00929 -52.12746 35107 ft 437 kts 88°
2026-04-24 12:05 -2.00855 -52.09718 35250 ft 439 kts 89°
2026-04-24 12:06 -2.00820 -52.06697 35371 ft 441 kts 89°
2026-04-24 12:06 -2.00824 -52.03594 35453 ft 441 kts 90°
2026-04-24 12:06 -2.00950 -51.97489 35269 ft 440 kts 91°
2026-04-24 12:07 -2.01241 -51.91419 35317 ft 437 kts 93°
2026-04-24 12:07 -2.01695 -51.85366 35432 ft 441 kts 95°
2026-04-24 12:08 -2.02318 -51.79262 35173 ft 439 kts 96°
2026-04-24 12:08 -2.03100 -51.73250 35358 ft 439 kts 97°
2026-04-24 12:09 -2.04048 -51.67174 35344 ft 441 kts 99°
2026-04-24 12:09 -2.04575 -51.64171 35169 ft 442 kts 99°
2026-04-24 12:09 -2.05146 -51.61155 35172 ft 437 kts 100°
2026-04-24 12:10 -2.05744 -51.58215 35325 ft 437 kts 101°
2026-04-24 12:10 -2.06393 -51.55226 35415 ft 440 kts 102°
2026-04-24 12:11 -2.08563 -51.46321 35281 ft 441 kts 104°
2026-04-24 12:11 -2.09369 -51.43346 35178 ft 439 kts 105°
2026-04-24 12:11 -2.10199 -51.40438 35304 ft 437 kts 105°
2026-04-24 12:11 -2.10941 -51.37510 35185 ft 433 kts 96°
2026-04-24 12:12 -2.10847 -51.34524 35001 ft 437 kts 78°
2026-04-24 12:12 -2.08705 -51.28811 34986 ft 444 kts 66°
2026-04-24 12:13 -2.06162 -51.23213 34987 ft 441 kts 68°
2026-04-24 12:13 -2.03904 -51.17471 34988 ft 443 kts 71°
2026-04-24 12:14 -2.01911 -51.11673 34989 ft 443 kts 73°
2026-04-24 12:14 -2.00028 -51.05827 34995 ft 442 kts 73°
2026-04-24 12:15 -1.98195 -50.99997 35002 ft 443 kts 73°
2026-04-24 12:15 -1.96360 -50.94127 35004 ft 442 kts 73°
2026-04-24 12:16 -1.94527 -50.88266 35006 ft 443 kts 73°
2026-04-24 12:16 -1.92680 -50.82363 35003 ft 444 kts 73°
2026-04-24 12:17 -1.90839 -50.76486 35002 ft 443 kts 73°
2026-04-24 12:17 -1.89003 -50.70625 34997 ft 444 kts 73°
2026-04-24 12:18 -1.87150 -50.64715 34999 ft 444 kts 73°
2026-04-24 12:18 -1.85309 -50.58845 34997 ft 446 kts 73°
2026-04-24 12:19 -1.83456 -50.52942 34998 ft 444 kts 73°
2026-04-24 12:19 -1.81600 -50.47037 34997 ft 445 kts 73°
2026-04-24 12:20 -1.79748 -50.41142 34993 ft 446 kts 73°
2026-04-24 12:20 -1.77907 -50.35280 34994 ft 445 kts 73°
2026-04-24 12:21 -1.76049 -50.29359 34994 ft 447 kts 73°
2026-04-24 12:21 -1.74190 -50.23446 34991 ft 446 kts 73°
2026-04-24 12:22 -1.72322 -50.17500 34992 ft 447 kts 73°
2026-04-24 12:22 -1.70467 -50.11596 34989 ft 447 kts 73°
2026-04-24 12:23 -1.68614 -50.05702 34989 ft 448 kts 73°
2026-04-24 12:23 -1.66754 -49.99789 34986 ft 446 kts 73°
2026-04-24 12:24 -1.64891 -49.93861 34986 ft 449 kts 73°
2026-04-24 12:24 -1.63015 -49.87895 34987 ft 448 kts 73°
2026-04-24 12:25 -1.61150 -49.81957 34986 ft 449 kts 73°
2026-04-24 12:25 -1.59285 -49.76022 34839 ft 444 kts 73°
2026-04-24 12:25 -1.58366 -49.73102 34197 ft 442 kts 73°
2026-04-24 12:26 -1.57448 -49.70187 33217 ft 446 kts 73°
2026-04-24 12:26 -1.56514 -49.67217 31961 ft 456 kts 73°
2026-04-24 12:26 -1.55560 -49.64181 31029 ft 460 kts 73°
2026-04-24 12:26 -1.54606 -49.61144 30236 ft 459 kts 73°
2026-04-24 12:27 -1.53655 -49.58121 29738 ft 452 kts 73°
2026-04-24 12:27 -1.52727 -49.55173 29196 ft 447 kts 73°
2026-04-24 12:27 -1.51799 -49.52227 28606 ft 443 kts 73°
2026-04-24 12:27 -1.50870 -49.49273 28026 ft 440 kts 73°
2026-04-24 12:28 -1.49969 -49.46405 27483 ft 436 kts 73°
2026-04-24 12:28 -1.49067 -49.43537 26977 ft 430 kts 73°
2026-04-24 12:28 -1.48176 -49.40701 26368 ft 428 kts 73°
2026-04-24 12:28 -1.47295 -49.37895 25829 ft 424 kts 73°
2026-04-24 12:29 -1.46414 -49.35092 25285 ft 420 kts 73°
2026-04-24 12:29 -1.45549 -49.32340 24771 ft 416 kts 73°
2026-04-24 12:29 -1.44684 -49.29590 24190 ft 413 kts 73°
2026-04-24 12:29 -1.43822 -49.26852 23642 ft 410 kts 73°
2026-04-24 12:30 -1.42973 -49.24154 23152 ft 405 kts 73°
2026-04-24 12:30 -1.42139 -49.21501 22596 ft 403 kts 73°
2026-04-24 12:30 -1.41299 -49.18834 22103 ft 398 kts 73°
2026-04-24 12:30 -1.40479 -49.16227 21602 ft 395 kts 73°
2026-04-24 12:31 -1.39663 -49.13635 21099 ft 392 kts 73°
2026-04-24 12:31 -1.38844 -49.11033 20630 ft 387 kts 73°
2026-04-24 12:31 -1.38052 -49.08517 20128 ft 383 kts 73°
2026-04-24 12:31 -1.37258 -49.05994 19660 ft 379 kts 73°
2026-04-24 12:32 -1.36474 -49.03503 19223 ft 373 kts 73°
2026-04-24 12:32 -1.35698 -49.01035 18738 ft 369 kts 73°
2026-04-24 12:32 -1.34934 -48.98607 18228 ft 366 kts 73°
2026-04-24 12:32 -1.34181 -48.96210 17747 ft 361 kts 73°
2026-04-24 12:33 -1.33441 -48.93851 17250 ft 357 kts 73°
2026-04-24 12:33 -1.32695 -48.91479 16693 ft 355 kts 73°
2026-04-24 12:33 -1.31960 -48.89141 16142 ft 353 kts 73°
2026-04-24 12:33 -1.31225 -48.86806 15610 ft 350 kts 72°
2026-04-24 12:34 -1.30496 -48.84492 15064 ft 348 kts 72°
2026-04-24 12:34 -1.29783 -48.82228 14725 ft 339 kts 72°
2026-04-24 12:34 -1.29088 -48.80020 14575 ft 325 kts 72°
2026-04-24 12:34 -1.28428 -48.77920 14420 ft 312 kts 72°
2026-04-24 12:35 -1.27794 -48.75905 14284 ft 299 kts 72°
2026-04-24 12:35 -1.27182 -48.73958 14148 ft 287 kts 72°
2026-04-24 12:35 -1.26591 -48.72078 13908 ft 280 kts 72°
2026-04-24 12:35 -1.26013 -48.70244 13507 ft 279 kts 72°
2026-04-24 12:36 -1.25428 -48.68383 13098 ft 278 kts 71°
2026-04-24 12:36 -1.24852 -48.66558 12700 ft 277 kts 72°
2026-04-24 12:36 -1.24280 -48.64742 12317 ft 276 kts 72°
2026-04-24 12:36 -1.23704 -48.62915 11918 ft 275 kts 72°
2026-04-24 12:37 -1.23131 -48.61095 11556 ft 272 kts 72°
2026-04-24 12:37 -1.22565 -48.59299 11203 ft 270 kts 72°
2026-04-24 12:37 -1.22006 -48.57525 10808 ft 270 kts 72°
2026-04-24 12:37 -1.21444 -48.55739 10402 ft 269 kts 72°
2026-04-24 12:38 -1.20882 -48.53956 10059 ft 267 kts 72°
2026-04-24 12:38 -1.20332 -48.52210 9692 ft 266 kts 72°
2026-04-24 12:38 -1.19775 -48.50444 9351 ft 264 kts 72°
2026-04-24 12:39 -1.18133 -48.45235 8287 ft 260 kts 72°
2026-04-24 12:39 -1.17591 -48.43515 8028 ft 255 kts 72°
2026-04-24 12:39 -1.17103 -48.41845 7844 ft 247 kts 77°
2026-04-24 12:40 -1.16995 -48.40156 7655 ft 242 kts 99°
2026-04-24 12:40 -1.17682 -48.38673 7352 ft 239 kts 128°
2026-04-24 12:40 -1.19000 -48.37671 6840 ft 236 kts 152°
2026-04-24 12:40 -1.20477 -48.37027 6366 ft 233 kts 153°
2026-04-24 12:41 -1.21948 -48.36373 5895 ft 224 kts 152°
2026-04-24 12:41 -1.23309 -48.35756 5523 ft 207 kts 154°
2026-04-24 12:41 -1.24654 -48.35384 5169 ft 198 kts 176°
2026-04-24 12:41 -1.25967 -48.35707 4844 ft 195 kts 208°
2026-04-24 12:42 -1.27034 -48.36546 4458 ft 199 kts 224°
2026-04-24 12:42 -1.28018 -48.37548 3784 ft 207 kts 225°
2026-04-24 12:42 -1.29027 -48.38590 3039 ft 214 kts 225°
2026-04-24 12:42 -1.30082 -48.39667 2284 ft 218 kts 225°
2026-04-24 12:43 -1.31136 -48.40740 1699 ft 210 kts 225°
2026-04-24 12:43 -1.32122 -48.41745 1378 ft 194 kts 226°
2026-04-24 12:43 -1.33024 -48.42664 1150 ft 174 kts 226°
2026-04-24 12:43 -1.33822 -48.43478 938 ft 157 kts 226°
2026-04-24 12:44 -1.34570 -48.44238 739 ft 150 kts 226°
2026-04-24 12:44 -1.35306 -48.44985 515 ft 149 kts 227°
2026-04-24 12:44 -1.36042 -48.45707 263 ft 148 kts 225°
2026-04-24 12:44 -1.36762 -48.46405 128 ft 138 kts 227°
2026-04-24 12:45 -1.37403 -48.47072 61 ft 116 kts 227°
2026-04-24 12:45 -1.37756 -48.47434 61 ft 32 kts 226°
2026-04-24 12:45 -1.37880 -48.47560 61 ft 25 kts 226°
2026-04-24 12:45 -1.37927 -48.47608 61 ft 0 kts 226°
2026-04-24 12:46 -1.37941 -48.47615 61 ft 9 kts 202°
2026-04-24 12:46 -1.38078 -48.47627 61 ft 27 kts 183°
2026-04-24 12:46 -1.38295 -48.47645 61 ft 30 kts 185°
2026-04-24 12:46 -1.38491 -48.47660 61 ft 27 kts 185°
2026-04-24 12:47 -1.38645 -48.47684 61 ft 18 kts 219°
2026-04-24 12:47 -1.38708 -48.47790 61 ft 20 kts 191°
2026-04-24 12:47 -1.38848 -48.47802 61 ft 16 kts 183°
2026-04-24 12:47 -1.38913 -48.47861 61 ft 9 kts 237°
2026-04-24 12:48 -1.38928 -48.47883 61 ft 1 kts 236°
2026-04-24 12:48 -1.38929 -48.47885 61 ft 0 kts 236°